Time,TemperatureF,DewpointF,PressureIn,WindDirection,WindDirectionDegrees,WindSpeedMPH,WindSpeedGustMPH,Humidity,HourlyPrecipIn,Conditions,Clouds,dailyrainin,SoftwareType,DateUTC
2013-02-05 00:01:00,40.0,24.7,29.87,WSW,247,6.0,7.0,54,0.00,,,0.00,VWS V14.01,2013-02-05 07:01:00,
2013-02-05 00:06:00,40.0,24.7,29.87,WNW,292,0.0,6.0,54,0.00,,,0.00,VWS V14.01,2013-02-05 07:06:00,
2013-02-05 00:11:00,40.0,25.1,29.87,NW,315,2.0,5.0,55,0.00,,,0.00,VWS V14.01,2013-02-05 07:11:00,
2013-02-05 00:16:00,39.0,24.6,29.87,NW,315,4.0,5.0,56,0.00,,,0.00,VWS V14.01,2013-02-05 07:16:00,
2013-02-05 00:21:00,39.0,24.6,29.88,North,360,7.0,10.0,56,0.00,,,0.00,VWS V14.01,2013-02-05 07:21:00,
2013-02-05 00:26:00,41.0,25.2,29.88,North,360,12.0,13.0,53,0.00,,,0.00,VWS V14.01,2013-02-05 07:26:00,
2013-02-05 00:31:00,41.0,25.6,29.87,NNW,337,12.0,13.0,54,0.00,,,0.00,VWS V14.01,2013-02-05 07:31:00,
2013-02-05 00:36:00,40.0,24.7,29.87,NNW,337,9.0,10.0,54,0.00,,,0.00,VWS V14.01,2013-02-05 07:36:00,
2013-02-05 00:41:00,40.0,25.1,29.88,NW,315,4.0,7.0,55,0.00,,,0.00,VWS V14.01,2013-02-05 07:41:00,
2013-02-05 00:46:00,40.0,25.1,29.88,NW,315,5.0,7.0,55,0.00,,,0.00,VWS V14.01,2013-02-05 07:46:00,
2013-02-05 00:51:00,40.0,26.0,29.89,NW,315,6.0,7.0,57,0.00,,,0.00,VWS V14.01,2013-02-05 07:51:00,
2013-02-05 00:56:00,40.0,26.0,29.89,NNW,337,5.0,7.0,57,0.00,,,0.00,VWS V14.01,2013-02-05 07:56:00,
2013-02-05 01:01:00,40.0,26.0,29.88,NW,315,6.0,7.0,57,0.00,,,0.00,VWS V14.01,2013-02-05 08:01:00,
2013-02-05 01:06:00,41.0,27.0,29.88,NW,315,6.0,10.0,57,0.00,,,0.00,VWS V14.01,2013-02-05 08:06:00,
2013-02-05 01:11:00,41.0,27.0,29.87,West,270,3.0,3.0,57,0.00,,,0.00,VWS V14.01,2013-02-05 08:11:00,
2013-02-05 01:16:00,41.0,26.5,29.87,NW,315,6.0,7.0,56,0.00,,,0.00,VWS V14.01,2013-02-05 08:16:00,
2013-02-05 01:21:00,41.0,27.0,29.89,WNW,292,6.0,7.0,57,0.00,,,0.00,VWS V14.01,2013-02-05 08:21:00,
2013-02-05 01:26:00,41.0,27.0,29.89,NW,315,4.0,7.0,57,0.00,,,0.00,VWS V14.01,2013-02-05 08:26:00,
2013-02-05 01:31:00,41.0,27.4,29.89,NW,315,6.0,8.0,58,0.00,,,0.00,VWS V14.01,2013-02-05 08:31:00,
2013-02-05 01:36:00,41.0,27.0,29.89,WNW,292,6.0,7.0,57,0.00,,,0.00,VWS V14.01,2013-02-05 08:36:00,
2013-02-05 01:41:00,41.0,26.5,29.90,West,270,5.0,7.0,56,0.00,,,0.00,VWS V14.01,2013-02-05 08:41:00,
2013-02-05 01:46:00,41.0,27.0,29.90,WNW,292,6.0,9.0,57,0.00,,,0.00,VWS V14.01,2013-02-05 08:46:00,
2013-02-05 01:52:00,42.0,27.5,29.90,WNW,292,6.0,11.0,56,0.00,,,0.00,VWS V14.01,2013-02-05 08:52:00,
2013-02-05 01:57:00,42.0,26.6,29.90,NW,315,9.0,13.0,54,0.00,,,0.00,VWS V14.01,2013-02-05 08:57:00,
2013-02-05 02:02:00,43.0,27.0,29.89,WNW,292,10.0,17.0,53,0.00,,,0.00,VWS V14.01,2013-02-05 09:02:00,
2013-02-05 02:07:00,42.0,26.6,29.89,WNW,292,2.0,10.0,54,0.00,,,0.00,VWS V14.01,2013-02-05 09:07:00,
2013-02-05 02:12:00,43.0,27.0,29.90,West,270,8.0,13.0,53,0.00,,,0.00,VWS V14.01,2013-02-05 09:12:00,
2013-02-05 02:17:00,42.0,26.6,29.90,WNW,292,5.0,7.0,54,0.00,,,0.00,VWS V14.01,2013-02-05 09:17:00,
2013-02-05 02:22:00,43.0,26.1,29.90,WNW,292,12.0,16.0,51,0.00,,,0.00,VWS V14.01,2013-02-05 09:22:00,
2013-02-05 02:27:00,43.0,26.6,29.90,WNW,292,6.0,14.0,52,0.00,,,0.00,VWS V14.01,2013-02-05 09:27:00,
2013-02-05 02:32:00,43.0,26.1,29.89,West,270,14.0,19.0,51,0.00,,,0.00,VWS V14.01,2013-02-05 09:32:00,
2013-02-05 02:37:00,43.0,26.6,29.89,WNW,292,9.0,15.0,52,0.00,,,0.00,VWS V14.01,2013-02-05 09:37:00,
2013-02-05 02:42:00,43.0,26.1,29.90,West,270,13.0,15.0,51,0.00,,,0.00,VWS V14.01,2013-02-05 09:42:00,
2013-02-05 02:47:00,42.0,25.7,29.90,WNW,292,7.0,12.0,52,0.00,,,0.00,VWS V14.01,2013-02-05 09:47:00,
2013-02-05 02:52:00,42.0,25.7,29.90,WNW,292,7.0,11.0,52,0.00,,,0.00,VWS V14.01,2013-02-05 09:52:00,
2013-02-05 02:57:00,42.0,25.7,29.90,West,270,7.0,10.0,52,0.00,,,0.00,VWS V14.01,2013-02-05 09:57:00,
2013-02-05 03:02:00,41.0,25.6,29.91,SW,225,7.0,7.0,54,0.00,,,0.00,VWS V14.01,2013-02-05 10:02:00,
2013-02-05 03:07:00,41.0,25.6,29.91,SW,225,6.0,7.0,54,0.00,,,0.00,VWS V14.01,2013-02-05 10:07:00,
2013-02-05 03:12:00,41.0,25.6,29.91,WNW,292,2.0,9.0,54,0.00,,,0.00,VWS V14.01,2013-02-05 10:12:00,
2013-02-05 03:17:00,41.0,25.6,29.91,West,270,1.0,5.0,54,0.00,,,0.00,VWS V14.01,2013-02-05 10:17:00,
2013-02-05 03:22:00,41.0,26.1,29.91,WNW,292,2.0,7.0,55,0.00,,,0.00,VWS V14.01,2013-02-05 10:22:00,
2013-02-05 03:27:00,41.0,25.6,29.91,WNW,292,3.0,6.0,54,0.00,,,0.00,VWS V14.01,2013-02-05 10:27:00,
2013-02-05 03:32:00,42.0,25.7,29.91,WNW,292,1.0,7.0,52,0.00,,,0.00,VWS V14.01,2013-02-05 10:32:00,
2013-02-05 03:37:00,41.0,25.6,29.91,WNW,292,2.0,3.0,54,0.00,,,0.00,VWS V14.01,2013-02-05 10:37:00,
2013-02-05 03:42:00,41.0,25.6,29.91,WNW,292,1.0,4.0,54,0.00,,,0.00,VWS V14.01,2013-02-05 10:42:00,
2013-02-05 03:47:00,40.0,25.1,29.91,WNW,292,0.0,1.0,55,0.00,,,0.00,VWS V14.01,2013-02-05 10:47:00,
2013-02-05 03:52:00,40.0,25.6,29.92,WNW,292,0.0,0.0,56,0.00,,,0.00,VWS V14.01,2013-02-05 10:52:00,
2013-02-05 03:57:00,39.0,25.1,29.92,WNW,292,0.0,0.0,57,0.00,,,0.00,VWS V14.01,2013-02-05 10:57:00,
2013-02-05 04:02:00,39.0,25.1,29.93,WNW,292,0.0,0.0,57,0.00,,,0.00,VWS V14.01,2013-02-05 11:02:00,
2013-02-05 04:07:00,39.0,25.9,29.93,WNW,292,0.0,0.0,59,0.00,,,0.00,VWS V14.01,2013-02-05 11:07:00,
2013-02-05 04:12:00,39.0,25.1,29.94,WNW,292,0.0,0.0,57,0.00,,,0.00,VWS V14.01,2013-02-05 11:12:00,
2013-02-05 04:17:00,39.0,25.1,29.94,WNW,292,0.0,0.0,57,0.00,,,0.00,VWS V14.01,2013-02-05 11:17:00,
2013-02-05 04:22:00,39.0,24.6,29.94,WNW,292,0.0,0.0,56,0.00,,,0.00,VWS V14.01,2013-02-05 11:22:00,
2013-02-05 04:27:00,39.0,25.1,29.94,WNW,292,0.0,0.0,57,0.00,,,0.00,VWS V14.01,2013-02-05 11:27:00,
2013-02-05 04:32:00,39.0,25.9,29.95,WNW,292,0.0,0.0,59,0.00,,,0.00,VWS V14.01,2013-02-05 11:32:00,
2013-02-05 04:37:00,39.0,25.9,29.95,WNW,292,0.0,0.0,59,0.00,,,0.00,VWS V14.01,2013-02-05 11:37:00,
2013-02-05 04:42:00,38.0,25.0,29.95,WNW,292,0.0,0.0,59,0.00,,,0.00,VWS V14.01,2013-02-05 11:42:00,
2013-02-05 04:47:00,38.0,24.5,29.95,WNW,292,0.0,0.0,58,0.00,,,0.00,VWS V14.01,2013-02-05 11:47:00,
2013-02-05 04:52:00,39.0,25.5,29.95,WNW,292,0.0,0.0,58,0.00,,,0.00,VWS V14.01,2013-02-05 11:52:00,
2013-02-05 04:57:00,38.0,24.5,29.95,NE,45,0.0,0.0,58,0.00,,,0.00,VWS V14.01,2013-02-05 11:57:00,
2013-02-05 05:02:00,39.0,25.1,29.95,NE,45,0.0,0.0,57,0.00,,,0.00,VWS V14.01,2013-02-05 12:02:00,
2013-02-05 05:08:00,39.0,24.6,29.95,NE,45,1.0,6.0,56,0.00,,,0.00,VWS V14.01,2013-02-05 12:08:00,
2013-02-05 05:13:00,39.0,25.1,29.93,NE,45,0.0,2.0,57,0.00,,,0.00,VWS V14.01,2013-02-05 12:13:00,
2013-02-05 05:18:00,39.0,25.1,29.93,NE,45,0.0,0.0,57,0.00,,,0.00,VWS V14.01,2013-02-05 12:18:00,
2013-02-05 05:23:00,39.0,25.9,29.95,NE,45,0.0,0.0,59,0.00,,,0.00,VWS V14.01,2013-02-05 12:23:00,
2013-02-05 05:28:00,38.0,25.0,29.95,NE,45,0.0,0.0,59,0.00,,,0.00,VWS V14.01,2013-02-05 12:28:00,
2013-02-05 05:33:00,38.0,25.8,29.95,NE,45,0.0,0.0,61,0.00,,,0.00,VWS V14.01,2013-02-05 12:33:00,
2013-02-05 05:38:00,38.0,25.8,29.95,NE,45,0.0,0.0,61,0.00,,,0.00,VWS V14.01,2013-02-05 12:38:00,
2013-02-05 05:43:00,38.0,26.9,29.96,NNE,22,5.0,7.0,64,0.00,,,0.00,VWS V14.01,2013-02-05 12:43:00,
2013-02-05 05:48:00,37.0,27.1,29.96,North,360,7.0,9.0,67,0.00,,,0.00,VWS V14.01,2013-02-05 12:48:00,
2013-02-05 05:53:00,37.0,27.8,29.97,North,360,4.0,7.0,69,0.00,,,0.00,VWS V14.01,2013-02-05 12:53:00,
2013-02-05 05:58:00,36.0,27.5,29.97,North,360,6.0,7.0,71,0.00,,,0.00,VWS V14.01,2013-02-05 12:58:00,
2013-02-05 06:03:00,36.0,27.5,29.98,North,360,2.0,10.0,71,0.00,,,0.00,VWS V14.01,2013-02-05 13:03:00,
2013-02-05 06:08:00,36.0,27.9,29.98,North,360,3.0,7.0,72,0.00,,,0.00,VWS V14.01,2013-02-05 13:08:00,
2013-02-05 06:13:00,36.0,28.5,29.98,North,360,7.0,7.0,74,0.00,,,0.00,VWS V14.01,2013-02-05 13:13:00,
2013-02-05 06:18:00,36.0,28.5,29.98,North,360,2.0,7.0,74,0.00,,,0.00,VWS V14.01,2013-02-05 13:18:00,
2013-02-05 06:23:00,35.0,27.6,29.99,North,360,3.0,7.0,74,0.00,,,0.00,VWS V14.01,2013-02-05 13:23:00,
2013-02-05 06:28:00,35.0,27.9,29.99,NNW,337,7.0,9.0,75,0.00,,,0.00,VWS V14.01,2013-02-05 13:28:00,
2013-02-05 06:33:00,35.0,28.2,29.99,NNW,337,8.0,10.0,76,0.00,,,0.00,VWS V14.01,2013-02-05 13:33:00,
2013-02-05 06:38:00,35.0,27.6,29.99,North,360,10.0,10.0,74,0.00,,,0.00,VWS V14.01,2013-02-05 13:38:00,
2013-02-05 06:43:00,35.0,27.9,29.99,NNW,337,7.0,10.0,75,0.00,,,0.00,VWS V14.01,2013-02-05 13:43:00,
2013-02-05 06:48:00,35.0,28.2,29.99,North,360,7.0,9.0,76,0.00,,,0.00,VWS V14.01,2013-02-05 13:48:00,
2013-02-05 06:53:00,35.0,28.2,29.99,NNW,337,9.0,10.0,76,0.00,,,0.00,VWS V14.01,2013-02-05 13:53:00,
2013-02-05 06:58:00,35.0,28.2,29.99,North,360,7.0,11.0,76,0.00,,,0.00,VWS V14.01,2013-02-05 13:58:00,
2013-02-05 07:03:00,35.0,28.2,30.00,NNW,337,8.0,10.0,76,0.00,,,0.00,VWS V14.01,2013-02-05 14:03:00,
2013-02-05 07:08:00,34.0,27.6,30.00,NNW,337,6.0,8.0,77,0.00,,,0.00,VWS V14.01,2013-02-05 14:08:00,
2013-02-05 07:13:00,34.0,27.6,30.01,NNW,337,6.0,9.0,77,0.00,,,0.00,VWS V14.01,2013-02-05 14:13:00,
2013-02-05 07:18:00,34.0,27.6,30.01,NNW,337,7.0,7.0,77,0.00,,,0.00,VWS V14.01,2013-02-05 14:18:00,
2013-02-05 07:23:00,34.0,27.6,30.01,North,360,3.0,7.0,77,0.00,,,0.00,VWS V14.01,2013-02-05 14:23:00,
2013-02-05 07:28:00,34.0,27.9,30.01,North,360,2.0,5.0,78,0.00,,,0.00,VWS V14.01,2013-02-05 14:28:00,
2013-02-05 07:33:00,34.0,28.2,30.02,NNE,22,3.0,3.0,79,0.00,,,0.00,VWS V14.01,2013-02-05 14:33:00,
2013-02-05 07:38:00,34.0,27.9,30.02,NNE,22,1.0,5.0,78,0.00,,,0.00,VWS V14.01,2013-02-05 14:38:00,
2013-02-05 07:43:00,34.0,27.9,30.03,NNE,22,4.0,4.0,78,0.00,,,0.00,VWS V14.01,2013-02-05 14:43:00,
2013-02-05 07:48:00,34.0,27.6,30.03,North,360,2.0,6.0,77,0.00,,,0.00,VWS V14.01,2013-02-05 14:48:00,
2013-02-05 07:53:00,34.0,27.6,30.03,NNW,337,4.0,5.0,77,0.00,,,0.00,VWS V14.01,2013-02-05 14:53:00,
2013-02-05 07:58:00,34.0,27.9,30.03,NW,315,1.0,3.0,78,0.00,,,0.00,VWS V14.01,2013-02-05 14:58:00,
2013-02-05 08:03:00,34.0,27.9,30.03,NW,315,2.0,3.0,78,0.00,,,0.00,VWS V14.01,2013-02-05 15:03:00,
2013-02-05 08:08:00,34.0,27.9,30.03,NW,315,0.0,1.0,78,0.00,,,0.00,VWS V14.01,2013-02-05 15:08:00,
2013-02-05 08:13:00,34.0,28.8,30.03,NW,315,0.0,0.0,81,0.00,,,0.00,VWS V14.01,2013-02-05 15:13:00,
2013-02-05 08:18:00,34.0,28.2,30.03,WSW,247,0.0,2.0,79,0.00,,,0.00,VWS V14.01,2013-02-05 15:18:00,
2013-02-05 08:23:00,35.0,29.8,30.03,WSW,247,1.0,5.0,81,0.00,,,0.00,VWS V14.01,2013-02-05 15:23:00,
2013-02-05 08:28:00,36.0,29.5,30.03,WSW,247,1.0,3.0,77,0.00,,,0.00,VWS V14.01,2013-02-05 15:28:00,
2013-02-05 08:33:00,37.0,29.5,30.01,West,270,0.0,2.0,74,0.00,,,0.00,VWS V14.01,2013-02-05 15:33:00,
2013-02-05 08:38:00,38.0,29.5,30.01,SW,225,3.0,3.0,71,0.00,,,0.00,VWS V14.01,2013-02-05 15:38:00,
2013-02-05 08:43:00,37.0,28.8,29.99,SW,225,4.0,6.0,72,0.00,,,0.00,VWS V14.01,2013-02-05 15:43:00,
2013-02-05 08:48:00,38.0,29.8,30.00,SW,225,1.0,3.0,72,0.00,,,0.00,VWS V14.01,2013-02-05 15:48:00,
2013-02-05 08:53:00,38.0,29.5,30.00,SSW,202,6.0,7.0,71,0.00,,,0.00,VWS V14.01,2013-02-05 15:53:00,
2013-02-05 08:58:00,38.0,29.1,29.99,SSW,202,6.0,7.0,70,0.00,,,0.00,VWS V14.01,2013-02-05 15:58:00,
2013-02-05 09:03:00,38.0,29.1,29.99,SW,225,4.0,6.0,70,0.00,,,0.00,VWS V14.01,2013-02-05 16:03:00,
2013-02-05 09:09:00,39.0,29.4,29.99,SSW,202,5.0,6.0,68,0.00,,,0.00,VWS V14.01,2013-02-05 16:09:00,
2013-02-05 09:14:00,40.0,29.6,29.99,SSE,157,2.0,8.0,66,0.00,,,0.00,VWS V14.01,2013-02-05 16:14:00,
2013-02-05 09:19:00,40.0,28.8,29.98,South,180,1.0,7.0,64,0.00,,,0.00,VWS V14.01,2013-02-05 16:19:00,
2013-02-05 09:24:00,40.0,28.8,29.98,SSE,157,6.0,7.0,64,0.00,,,0.00,VWS V14.01,2013-02-05 16:24:00,
2013-02-05 09:29:00,41.0,29.0,29.98,South,180,6.0,9.0,62,0.00,,,0.00,VWS V14.01,2013-02-05 16:29:00,
2013-02-05 09:34:00,41.0,28.6,29.98,SSE,157,4.0,10.0,61,0.00,,,0.00,VWS V14.01,2013-02-05 16:34:00,
2013-02-05 09:39:00,42.0,29.9,29.97,SSE,157,6.0,9.0,62,0.00,,,0.00,VWS V14.01,2013-02-05 16:39:00,
2013-02-05 09:44:00,42.0,29.1,29.97,SSE,157,5.0,9.0,60,0.00,,,0.00,VWS V14.01,2013-02-05 16:44:00,
2013-02-05 09:49:00,42.0,29.1,29.97,ESE,112,9.0,9.0,60,0.00,,,0.00,VWS V14.01,2013-02-05 16:49:00,
2013-02-05 09:54:00,41.0,28.6,29.97,SE,135,6.0,9.0,61,0.00,,,0.00,VWS V14.01,2013-02-05 16:54:00,
2013-02-05 09:59:00,41.0,28.6,29.99,SSE,157,7.0,8.0,61,0.00,,,0.00,VWS V14.01,2013-02-05 16:59:00,
2013-02-05 10:04:00,42.0,29.5,29.99,ESE,112,6.0,9.0,61,0.00,,,0.00,VWS V14.01,2013-02-05 17:04:00,
2013-02-05 10:09:00,42.0,29.5,29.98,SE,135,4.0,9.0,61,0.00,,,0.00,VWS V14.01,2013-02-05 17:09:00,
2013-02-05 10:14:00,42.0,29.1,29.98,SE,135,9.0,10.0,60,0.00,,,0.00,VWS V14.01,2013-02-05 17:14:00,
2013-02-05 10:19:00,43.0,29.2,29.98,SE,135,12.0,13.0,58,0.00,,,0.00,VWS V14.01,2013-02-05 17:19:00,
2013-02-05 10:24:00,42.0,28.7,29.98,SE,135,9.0,14.0,59,0.00,,,0.00,VWS V14.01,2013-02-05 17:24:00,
2013-02-05 10:29:00,43.0,29.7,29.97,ESE,112,5.0,11.0,59,0.00,,,0.00,VWS V14.01,2013-02-05 17:29:00,
2013-02-05 10:34:00,43.0,29.2,29.97,SE,135,12.0,13.0,58,0.00,,,0.00,VWS V14.01,2013-02-05 17:34:00,
2013-02-05 10:39:00,43.0,29.7,29.98,SSE,157,13.0,16.0,59,0.00,,,0.00,VWS V14.01,2013-02-05 17:39:00,
2013-02-05 10:44:00,43.0,29.7,29.98,SE,135,9.0,14.0,59,0.00,,,0.00,VWS V14.01,2013-02-05 17:44:00,
2013-02-05 10:49:00,43.0,29.7,29.98,SSE,157,13.0,17.0,59,0.00,,,0.00,VWS V14.01,2013-02-05 17:49:00,
2013-02-05 10:54:00,43.0,29.7,29.98,ESE,112,7.0,14.0,59,0.00,,,0.00,VWS V14.01,2013-02-05 17:54:00,
2013-02-05 10:59:00,44.0,30.2,29.97,SE,135,8.0,14.0,58,0.00,,,0.00,VWS V14.01,2013-02-05 17:59:00,
2013-02-05 11:04:00,44.0,29.3,29.97,SSE,157,13.0,15.0,56,0.00,,,0.00,VWS V14.01,2013-02-05 18:04:00,
2013-02-05 11:09:00,45.0,29.8,29.96,SSE,157,11.0,15.0,55,0.00,,,0.00,VWS V14.01,2013-02-05 18:09:00,
2013-02-05 11:14:00,45.0,27.5,29.96,South,180,9.0,14.0,50,0.00,,,0.00,VWS V14.01,2013-02-05 18:14:00,
2013-02-05 11:19:00,46.0,29.4,29.95,SSE,157,11.0,15.0,52,0.00,,,0.00,VWS V14.01,2013-02-05 18:19:00,
2013-02-05 11:24:00,45.0,26.5,29.95,SE,135,11.0,13.0,48,0.00,,,0.00,VWS V14.01,2013-02-05 18:24:00,
2013-02-05 11:29:00,45.0,29.4,29.95,SE,135,7.0,15.0,54,0.00,,,0.00,VWS V14.01,2013-02-05 18:29:00,
2013-02-05 11:34:00,44.0,29.8,29.95,SE,135,11.0,16.0,57,0.00,,,0.00,VWS V14.01,2013-02-05 18:34:00,
2013-02-05 11:39:00,45.0,29.8,29.95,SE,135,14.0,16.0,55,0.00,,,0.00,VWS V14.01,2013-02-05 18:39:00,
2013-02-05 11:44:00,45.0,28.9,29.95,SE,135,15.0,19.0,53,0.00,,,0.00,VWS V14.01,2013-02-05 18:44:00,
2013-02-05 11:49:00,45.0,28.9,29.94,SE,135,15.0,18.0,53,0.00,,,0.00,VWS V14.01,2013-02-05 18:49:00,
2013-02-05 11:54:00,45.0,28.5,29.94,SE,135,12.0,16.0,52,0.00,,,0.00,VWS V14.01,2013-02-05 18:54:00,
2013-02-05 11:59:00,46.0,28.9,29.93,SE,135,14.0,16.0,51,0.00,,,0.00,VWS V14.01,2013-02-05 18:59:00,
2013-02-05 12:04:00,46.0,26.9,29.93,SSE,157,9.0,15.0,47,0.00,,,0.00,VWS V14.01,2013-02-05 19:04:00,
2013-02-05 12:09:00,46.0,26.9,29.93,SE,135,8.0,16.0,47,0.00,,,0.00,VWS V14.01,2013-02-05 19:09:00,
2013-02-05 12:14:00,46.0,26.9,29.93,SSE,157,13.0,17.0,47,0.00,,,0.00,VWS V14.01,2013-02-05 19:14:00,
2013-02-05 12:19:00,46.0,27.9,29.93,SSE,157,7.0,16.0,49,0.00,,,0.00,VWS V14.01,2013-02-05 19:19:00,
2013-02-05 12:24:00,45.0,26.5,29.93,SE,135,10.0,18.0,48,0.00,,,0.00,VWS V14.01,2013-02-05 19:24:00,
2013-02-05 12:29:00,46.0,27.4,29.92,ESE,112,13.0,14.0,48,0.00,,,0.00,VWS V14.01,2013-02-05 19:29:00,
2013-02-05 12:34:00,46.0,26.9,29.92,SSE,157,13.0,15.0,47,0.00,,,0.00,VWS V14.01,2013-02-05 19:34:00,
2013-02-05 12:39:00,46.0,26.9,29.91,SE,135,12.0,14.0,47,0.00,,,0.00,VWS V14.01,2013-02-05 19:39:00,
2013-02-05 12:44:00,45.0,26.5,29.91,SE,135,10.0,15.0,48,0.00,,,0.00,VWS V14.01,2013-02-05 19:44:00,
2013-02-05 12:49:00,46.0,25.9,29.90,ESE,112,11.0,16.0,45,0.00,,,0.00,VWS V14.01,2013-02-05 19:49:00,
2013-02-05 12:54:00,46.0,25.3,29.90,ESE,112,13.0,16.0,44,0.00,,,0.00,VWS V14.01,2013-02-05 19:54:00,
2013-02-05 12:59:00,47.0,26.8,29.89,ESE,112,12.0,17.0,45,0.00,,,0.00,VWS V14.01,2013-02-05 19:59:00,
2013-02-05 13:04:00,46.0,25.9,29.89,SE,135,7.0,17.0,45,0.00,,,0.00,VWS V14.01,2013-02-05 20:04:00,
2013-02-05 13:09:00,46.0,25.9,29.89,ESE,112,12.0,16.0,45,0.00,,,0.00,VWS V14.01,2013-02-05 20:09:00,
2013-02-05 13:14:00,46.0,26.4,29.89,SE,135,10.0,17.0,46,0.00,,,0.00,VWS V14.01,2013-02-05 20:14:00,
2013-02-05 13:19:00,47.0,27.3,29.88,SE,135,10.0,18.0,46,0.00,,,0.00,VWS V14.01,2013-02-05 20:19:00,
2013-02-05 13:24:00,46.0,26.9,29.88,ESE,112,13.0,16.0,47,0.00,,,0.00,VWS V14.01,2013-02-05 20:24:00,
2013-02-05 13:29:00,46.0,27.4,29.89,SE,135,9.0,15.0,48,0.00,,,0.00,VWS V14.01,2013-02-05 20:29:00,
2013-02-05 13:34:00,46.0,27.9,29.89,East,90,9.0,20.0,49,0.00,,,0.00,VWS V14.01,2013-02-05 20:34:00,
2013-02-05 13:39:00,46.0,26.9,29.89,SE,135,9.0,16.0,47,0.00,,,0.00,VWS V14.01,2013-02-05 20:39:00,
2013-02-05 13:44:00,46.0,27.9,29.89,SE,135,10.0,15.0,49,0.00,,,0.00,VWS V14.01,2013-02-05 20:44:00,
2013-02-05 13:49:00,45.0,27.5,29.89,ESE,112,13.0,17.0,50,0.00,,,0.00,VWS V14.01,2013-02-05 20:49:00,
2013-02-05 13:54:00,47.0,29.3,29.89,SE,135,13.0,17.0,50,0.00,,,0.00,VWS V14.01,2013-02-05 20:54:00,
2013-02-05 13:59:00,46.0,28.4,29.87,ESE,112,15.0,20.0,50,0.00,,,0.00,VWS V14.01,2013-02-05 20:59:00,
2013-02-05 14:04:00,46.0,28.4,29.87,ESE,112,13.0,14.0,50,0.00,,,0.00,VWS V14.01,2013-02-05 21:04:00,
2013-02-05 14:09:00,46.0,28.4,29.87,ESE,112,10.0,11.0,50,0.00,,,0.00,VWS V14.01,2013-02-05 21:09:00,
2013-02-05 14:14:00,46.0,29.4,29.87,East,90,13.0,13.0,52,0.00,,,0.00,VWS V14.01,2013-02-05 21:14:00,
2013-02-05 14:19:00,47.0,30.3,29.86,ESE,112,13.0,13.0,52,0.00,,,0.00,VWS V14.01,2013-02-05 21:19:00,
2013-02-05 14:24:00,46.0,28.9,29.86,ESE,112,12.0,16.0,51,0.00,,,0.00,VWS V14.01,2013-02-05 21:24:00,
2013-02-05 14:29:00,46.0,28.9,29.86,SE,135,11.0,13.0,51,0.00,,,0.00,VWS V14.01,2013-02-05 21:29:00,
2013-02-05 14:34:00,46.0,28.9,29.86,ESE,112,17.0,17.0,51,0.00,,,0.00,VWS V14.01,2013-02-05 21:34:00,
2013-02-05 14:39:00,47.0,29.8,29.85,SE,135,10.0,11.0,51,0.00,,,0.00,VWS V14.01,2013-02-05 21:39:00,
2013-02-05 14:44:00,47.0,30.3,29.85,East,90,13.0,15.0,52,0.00,,,0.00,VWS V14.01,2013-02-05 21:44:00,
2013-02-05 14:49:00,47.0,29.8,29.84,East,90,20.0,20.0,51,0.00,,,0.00,VWS V14.01,2013-02-05 21:49:00,
2013-02-05 14:54:00,47.0,30.3,29.84,ESE,112,12.0,15.0,52,0.00,,,0.00,VWS V14.01,2013-02-05 21:54:00,
2013-02-05 14:59:00,48.0,29.3,29.84,SE,135,11.0,16.0,48,0.00,,,0.00,VWS V14.01,2013-02-05 21:59:00,
2013-02-05 15:04:00,47.0,28.9,29.84,ESE,112,12.0,15.0,49,0.00,,,0.00,VWS V14.01,2013-02-05 22:04:00,
2013-02-05 15:09:00,48.0,27.7,29.85,ESE,112,12.0,15.0,45,0.00,,,0.00,VWS V14.01,2013-02-05 22:09:00,
2013-02-05 15:14:00,48.0,28.2,29.85,ESE,112,13.0,16.0,46,0.00,,,0.00,VWS V14.01,2013-02-05 22:14:00,
2013-02-05 15:19:00,48.0,28.2,29.84,SE,135,10.0,12.0,46,0.00,,,0.00,VWS V14.01,2013-02-05 22:19:00,
2013-02-05 15:24:00,49.0,28.0,29.84,SE,135,9.0,13.0,44,0.00,,,0.00,VWS V14.01,2013-02-05 22:24:00,
2013-02-05 15:29:00,49.0,26.9,29.83,South,180,12.0,18.0,42,0.00,,,0.00,VWS V14.01,2013-02-05 22:29:00,
2013-02-05 15:34:00,49.0,26.9,29.83,South,180,21.0,21.0,42,0.00,,,0.00,VWS V14.01,2013-02-05 22:34:00,
2013-02-05 15:39:00,49.0,26.9,29.82,South,180,17.0,20.0,42,0.00,,,0.00,VWS V14.01,2013-02-05 22:39:00,
2013-02-05 15:44:00,49.0,26.9,29.82,South,180,20.0,23.0,42,0.00,,,0.00,VWS V14.01,2013-02-05 22:44:00,
2013-02-05 15:49:00,49.0,26.9,29.82,South,180,16.0,19.0,42,0.00,,,0.00,VWS V14.01,2013-02-05 22:49:00,
2013-02-05 15:54:00,49.0,26.9,29.82,South,180,17.0,19.0,42,0.00,,,0.00,VWS V14.01,2013-02-05 22:54:00,
2013-02-05 15:59:00,48.0,26.6,29.83,SSW,202,16.0,16.0,43,0.00,,,0.00,VWS V14.01,2013-02-05 22:59:00,
2013-02-05 16:04:00,48.0,26.6,29.83,SSW,202,13.0,16.0,43,0.00,,,0.00,VWS V14.01,2013-02-05 23:04:00,
2013-02-05 16:09:00,48.0,27.1,29.83,SSW,202,9.0,18.0,44,0.00,,,0.00,VWS V14.01,2013-02-05 23:09:00,
2013-02-05 16:14:00,47.0,26.2,29.83,SSW,202,15.0,18.0,44,0.00,,,0.00,VWS V14.01,2013-02-05 23:14:00,
2013-02-05 16:19:00,47.0,26.8,29.83,South,180,18.0,19.0,45,0.00,,,0.00,VWS V14.01,2013-02-05 23:19:00,
2013-02-05 16:25:00,46.0,26.9,29.83,South,180,16.0,18.0,47,0.00,,,0.00,VWS V14.01,2013-02-05 23:25:00,
2013-02-05 16:30:00,45.0,26.0,29.84,SSW,202,13.0,17.0,47,0.00,,,0.00,VWS V14.01,2013-02-05 23:30:00,
2013-02-05 16:35:00,45.0,26.5,29.84,South,180,17.0,18.0,48,0.00,,,0.00,VWS V14.01,2013-02-05 23:35:00,
2013-02-05 16:40:00,45.0,26.5,29.84,SSW,202,16.0,20.0,48,0.00,,,0.00,VWS V14.01,2013-02-05 23:40:00,
2013-02-05 16:45:00,44.0,26.1,29.84,SSW,202,16.0,16.0,49,0.00,,,0.00,VWS V14.01,2013-02-05 23:45:00,
2013-02-05 16:50:00,44.0,26.1,29.85,South,180,13.0,16.0,49,0.00,,,0.00,VWS V14.01,2013-02-05 23:50:00,
2013-02-05 16:55:00,44.0,26.6,29.85,South,180,13.0,16.0,50,0.00,,,0.00,VWS V14.01,2013-02-05 23:55:00,
2013-02-05 17:00:00,44.0,26.6,29.85,South,180,17.0,17.0,50,0.00,,,0.00,VWS V14.01,2013-02-06 00:00:00,
2013-02-05 17:05:00,43.0,25.2,29.85,South,180,14.0,17.0,49,0.00,,,0.00,VWS V14.01,2013-02-06 00:05:00,
2013-02-05 17:10:00,44.0,26.6,29.85,South,180,16.0,20.0,50,0.00,,,0.00,VWS V14.01,2013-02-06 00:10:00,
2013-02-05 17:15:00,43.0,25.2,29.85,South,180,13.0,16.0,49,0.00,,,0.00,VWS V14.01,2013-02-06 00:15:00,
2013-02-05 17:20:00,43.0,25.6,29.86,South,180,12.0,15.0,50,0.00,,,0.00,VWS V14.01,2013-02-06 00:20:00,
2013-02-05 17:25:00,42.0,25.2,29.86,South,180,10.0,12.0,51,0.00,,,0.00,VWS V14.01,2013-02-06 00:25:00,
2013-02-05 17:30:00,42.0,25.7,29.87,SSW,202,10.0,14.0,52,0.00,,,0.00,VWS V14.01,2013-02-06 00:30:00,
2013-02-05 17:35:00,42.0,25.2,29.87,SSW,202,11.0,13.0,51,0.00,,,0.00,VWS V14.01,2013-02-06 00:35:00,
2013-02-05 17:40:00,42.0,25.2,29.87,SSW,202,10.0,12.0,51,0.00,,,0.00,VWS V14.01,2013-02-06 00:40:00,
2013-02-05 17:45:00,41.0,24.7,29.87,SSW,202,7.0,9.0,52,0.00,,,0.00,VWS V14.01,2013-02-06 00:45:00,
2013-02-05 17:50:00,40.0,24.7,29.87,SSW,202,12.0,12.0,54,0.00,,,0.00,VWS V14.01,2013-02-06 00:50:00,
2013-02-05 17:55:00,40.0,25.6,29.87,SSW,202,9.0,11.0,56,0.00,,,0.00,VWS V14.01,2013-02-06 00:55:00,
2013-02-05 18:00:00,39.0,24.6,29.87,SSW,202,7.0,10.0,56,0.00,,,0.00,VWS V14.01,2013-02-06 01:00:00,
2013-02-05 18:05:00,38.0,25.0,29.87,SW,225,8.0,9.0,59,0.00,,,0.00,VWS V14.01,2013-02-06 01:05:00,
2013-02-05 18:10:00,38.0,24.5,29.88,SW,225,10.0,10.0,58,0.00,,,0.00,VWS V14.01,2013-02-06 01:10:00,
2013-02-05 18:15:00,39.0,25.9,29.88,SSW,202,10.0,10.0,59,0.00,,,0.00,VWS V14.01,2013-02-06 01:15:00,
2013-02-05 18:20:00,38.0,24.5,29.88,SSW,202,9.0,9.0,58,0.00,,,0.00,VWS V14.01,2013-02-06 01:20:00,
2013-02-05 18:25:00,39.0,25.1,29.88,SSW,202,10.0,12.0,57,0.00,,,0.00,VWS V14.01,2013-02-06 01:25:00,
2013-02-05 18:30:00,39.0,25.5,29.88,South,180,10.0,14.0,58,0.00,,,0.00,VWS V14.01,2013-02-06 01:30:00,
2013-02-05 18:35:00,38.0,25.0,29.88,South,180,10.0,11.0,59,0.00,,,0.00,VWS V14.01,2013-02-06 01:35:00,
2013-02-05 18:40:00,38.0,25.4,29.88,SSW,202,9.0,12.0,60,0.00,,,0.00,VWS V14.01,2013-02-06 01:40:00,
2013-02-05 18:45:00,38.0,25.4,29.88,South,180,10.0,12.0,60,0.00,,,0.00,VWS V14.01,2013-02-06 01:45:00,
2013-02-05 18:50:00,38.0,25.0,29.88,SSW,202,11.0,13.0,59,0.00,,,0.00,VWS V14.01,2013-02-06 01:50:00,
2013-02-05 18:55:00,39.0,25.1,29.88,SSW,202,12.0,15.0,57,0.00,,,0.00,VWS V14.01,2013-02-06 01:55:00,
2013-02-05 19:00:00,40.0,25.6,29.87,SSW,202,11.0,15.0,56,0.00,,,0.00,VWS V14.01,2013-02-06 02:00:00,
2013-02-05 19:05:00,40.0,25.6,29.87,SSW,202,14.0,15.0,56,0.00,,,0.00,VWS V14.01,2013-02-06 02:05:00,
2013-02-05 19:10:00,40.0,25.1,29.87,SSW,202,15.0,15.0,55,0.00,,,0.00,VWS V14.01,2013-02-06 02:10:00,
2013-02-05 19:15:00,41.0,25.6,29.87,SSW,202,11.0,15.0,54,0.00,,,0.00,VWS V14.01,2013-02-06 02:15:00,
2013-02-05 19:20:00,41.0,25.6,29.86,SSW,202,12.0,15.0,54,0.00,,,0.00,VWS V14.01,2013-02-06 02:20:00,
2013-02-05 19:25:00,40.0,25.1,29.86,SSW,202,12.0,14.0,55,0.00,,,0.00,VWS V14.01,2013-02-06 02:25:00,
2013-02-05 19:30:00,40.0,25.6,29.87,SSW,202,12.0,12.0,56,0.00,,,0.00,VWS V14.01,2013-02-06 02:30:00,
2013-02-05 19:35:00,40.0,26.0,29.87,SSW,202,8.0,13.0,57,0.00,,,0.00,VWS V14.01,2013-02-06 02:35:00,
2013-02-05 19:41:00,40.0,26.0,29.86,SSW,202,11.0,13.0,57,0.00,,,0.00,VWS V14.01,2013-02-06 02:41:00,
2013-02-05 19:46:00,40.0,25.6,29.86,SSW,202,10.0,13.0,56,0.00,,,0.00,VWS V14.01,2013-02-06 02:46:00,
2013-02-05 19:51:00,40.0,25.6,29.86,SSW,202,10.0,13.0,56,0.00,,,0.00,VWS V14.01,2013-02-06 02:51:00,
2013-02-05 19:56:00,40.0,26.0,29.86,SSW,202,9.0,12.0,57,0.00,,,0.00,VWS V14.01,2013-02-06 02:56:00,
2013-02-05 20:01:00,39.0,25.1,29.86,SSW,202,10.0,12.0,57,0.00,,,0.00,VWS V14.01,2013-02-06 03:01:00,
2013-02-05 20:06:00,39.0,25.9,29.86,South,180,9.0,10.0,59,0.00,,,0.00,VWS V14.01,2013-02-06 03:06:00,
2013-02-05 20:11:00,38.0,25.0,29.87,South,180,8.0,10.0,59,0.00,,,0.00,VWS V14.01,2013-02-06 03:11:00,
2013-02-05 20:16:00,38.0,25.4,29.87,South,180,7.0,10.0,60,0.00,,,0.00,VWS V14.01,2013-02-06 03:16:00,
2013-02-05 20:21:00,37.0,24.8,29.87,South,180,9.0,11.0,61,0.00,,,0.00,VWS V14.01,2013-02-06 03:21:00,
2013-02-05 20:26:00,37.0,25.2,29.87,South,180,9.0,10.0,62,0.00,,,0.00,VWS V14.01,2013-02-06 03:26:00,
2013-02-05 20:31:00,37.0,25.2,29.87,SSW,202,8.0,11.0,62,0.00,,,0.00,VWS V14.01,2013-02-06 03:31:00,
2013-02-05 20:36:00,37.0,25.6,29.87,SSW,202,12.0,13.0,63,0.00,,,0.00,VWS V14.01,2013-02-06 03:36:00,
2013-02-05 20:41:00,37.0,25.6,29.87,SSW,202,12.0,13.0,63,0.00,,,0.00,VWS V14.01,2013-02-06 03:41:00,
2013-02-05 20:46:00,37.0,25.6,29.87,SSW,202,10.0,13.0,63,0.00,,,0.00,VWS V14.01,2013-02-06 03:46:00,
2013-02-05 20:51:00,37.0,25.6,29.87,SSW,202,12.0,15.0,63,0.00,,,0.00,VWS V14.01,2013-02-06 03:51:00,
2013-02-05 20:56:00,37.0,25.6,29.87,SSW,202,14.0,14.0,63,0.00,,,0.00,VWS V14.01,2013-02-06 03:56:00,
2013-02-05 21:01:00,37.0,25.6,29.87,South,180,11.0,13.0,63,0.00,,,0.00,VWS V14.01,2013-02-06 04:01:00,
2013-02-05 21:06:00,37.0,25.6,29.87,South,180,12.0,14.0,63,0.00,,,0.00,VWS V14.01,2013-02-06 04:06:00,
2013-02-05 21:11:00,37.0,25.2,29.85,SSW,202,13.0,13.0,62,0.00,,,0.00,VWS V14.01,2013-02-06 04:11:00,
2013-02-05 21:16:00,38.0,26.1,29.85,SSW,202,9.0,13.0,62,0.00,,,0.00,VWS V14.01,2013-02-06 04:16:00,
2013-02-05 21:21:00,38.0,26.1,29.85,SSW,202,11.0,13.0,62,0.00,,,0.00,VWS V14.01,2013-02-06 04:21:00,
2013-02-05 21:26:00,38.0,25.8,29.85,SSW,202,10.0,14.0,61,0.00,,,0.00,VWS V14.01,2013-02-06 04:26:00,
2013-02-05 21:31:00,38.0,25.4,29.85,SSW,202,12.0,13.0,60,0.00,,,0.00,VWS V14.01,2013-02-06 04:31:00,
2013-02-05 21:36:00,38.0,25.8,29.85,SSW,202,10.0,13.0,61,0.00,,,0.00,VWS V14.01,2013-02-06 04:36:00,
2013-02-05 21:41:00,38.0,25.8,29.85,SSW,202,9.0,13.0,61,0.00,,,0.00,VWS V14.01,2013-02-06 04:41:00,
2013-02-05 21:46:00,38.0,25.8,29.85,SSW,202,12.0,12.0,61,0.00,,,0.00,VWS V14.01,2013-02-06 04:46:00,
2013-02-05 21:51:00,38.0,25.4,29.84,SSW,202,12.0,13.0,60,0.00,,,0.00,VWS V14.01,2013-02-06 04:51:00,
2013-02-05 21:56:00,38.0,25.4,29.84,SSW,202,12.0,13.0,60,0.00,,,0.00,VWS V14.01,2013-02-06 04:56:00,
2013-02-05 22:00:00,38.0,25.4,29.83,SSW,202,10.0,12.0,60,0.00,,,0.00,VWS V14.01,2013-02-06 05:00:00,
2013-02-05 22:05:00,38.0,25.8,29.83,SSW,202,8.0,10.0,61,0.00,,,0.00,VWS V14.01,2013-02-06 05:05:00,
2013-02-05 22:10:00,37.0,25.2,29.83,SSW,202,4.0,8.0,62,0.00,,,0.00,VWS V14.01,2013-02-06 05:10:00,
2013-02-05 22:15:00,37.0,26.0,29.83,SSW,202,6.0,7.0,64,0.00,,,0.00,VWS V14.01,2013-02-06 05:15:00,
2013-02-05 22:20:00,36.0,25.4,29.85,SSW,202,6.0,9.0,65,0.00,,,0.00,VWS V14.01,2013-02-06 05:20:00,
2013-02-05 22:25:00,35.0,24.8,29.85,SSW,202,9.0,10.0,66,0.00,,,0.00,VWS V14.01,2013-02-06 05:25:00,
2013-02-05 22:30:00,36.0,25.4,29.85,SSW,202,9.0,10.0,65,0.00,,,0.00,VWS V14.01,2013-02-06 05:30:00,
2013-02-05 22:35:00,36.0,25.4,29.85,SSW,202,7.0,9.0,65,0.00,,,0.00,VWS V14.01,2013-02-06 05:35:00,
2013-02-05 22:40:00,35.0,25.2,29.85,SSW,202,6.0,8.0,67,0.00,,,0.00,VWS V14.01,2013-02-06 05:40:00,
2013-02-05 22:45:00,32.0,24.3,29.85,SW,225,6.0,7.0,73,0.00,,,0.00,VWS V14.01,2013-02-06 05:45:00,
2013-02-05 22:50:00,33.0,25.0,29.86,SSW,202,7.0,7.0,72,0.00,,,0.00,VWS V14.01,2013-02-06 05:50:00,
2013-02-05 22:55:00,33.0,25.0,29.86,SSW,202,6.0,7.0,72,0.00,,,0.00,VWS V14.01,2013-02-06 05:55:00,
2013-02-05 23:00:00,33.0,24.3,29.85,SSW,202,9.0,9.0,70,0.00,,,0.00,VWS V14.01,2013-02-06 06:00:00,
2013-02-05 23:06:00,34.0,24.9,29.85,South,180,5.0,7.0,69,0.00,,,0.00,VWS V14.01,2013-02-06 06:06:00,
2013-02-05 23:11:00,34.0,24.6,29.85,South,180,3.0,4.0,68,0.00,,,0.00,VWS V14.01,2013-02-06 06:11:00,
2013-02-05 23:16:00,35.0,25.2,29.85,South,180,0.0,4.0,67,0.00,,,0.00,VWS V14.01,2013-02-06 06:16:00,
2013-02-05 23:21:00,36.0,25.0,29.83,SE,135,1.0,2.0,64,0.00,,,0.00,VWS V14.01,2013-02-06 06:21:00,
2013-02-05 23:26:00,37.0,25.2,29.83,South,180,3.0,6.0,62,0.00,,,0.00,VWS V14.01,2013-02-06 06:26:00,
2013-02-05 23:31:00,35.0,24.8,29.83,West,270,0.0,1.0,66,0.00,,,0.00,VWS V14.01,2013-02-06 06:31:00,
2013-02-05 23:36:00,34.0,24.2,29.83,WNW,292,0.0,0.0,67,0.00,,,0.00,VWS V14.01,2013-02-06 06:36:00,
2013-02-05 23:41:00,35.0,25.2,29.84,WSW,247,0.0,2.0,67,0.00,,,0.00,VWS V14.01,2013-02-06 06:41:00,
2013-02-05 23:46:00,34.0,24.2,29.84,WSW,247,0.0,0.0,67,0.00,,,0.00,VWS V14.01,2013-02-06 06:46:00,
2013-02-05 23:51:00,34.0,24.9,29.84,SSW,202,1.0,4.0,69,0.00,,,0.00,VWS V14.01,2013-02-06 06:51:00,
2013-02-05 23:56:00,33.0,24.3,29.84,SSW,202,6.0,6.0,70,0.00,,,0.00,VWS V14.01,2013-02-06 06:56:00,